This is the latest recevied weather packets stored in our database for station/object DF7ER-12. If no packets are shown the sender has not sent any weather packets the latest 10 day(s).
| Time | Temp. | Humidity | Pressure | Rain* | Wind** | Luminosity | Snow |
|---|---|---|---|---|---|---|---|
| 1788211249 | 20.56° C | 84% | 1001.8 hPa | - | - | - | - |
| 1788210949 | 20.56° C | 85% | 1001.8 hPa | - | - | - | - |
| 1788210650 | 20.56° C | 84% | 1001.7 hPa | - | - | - | - |
| 1788210349 | 20° C | 86% | 1001.8 hPa | - | - | - | - |
| 1788210050 | 20.56° C | 86% | 1001.8 hPa | - | - | - | - |
| 1788209749 | 20.56° C | 86% | 1001.8 hPa | - | - | - | - |
| 1788209469 | 20.56° C | 83% | 1001.8 hPa | - | - | - | - |
| 1788209149 | 20.56° C | 85% | 1001.8 hPa | - | - | - | - |
| 1788208849 | 20.56° C | 84% | 1001.8 hPa | - | - | - | - |
| 1788208549 | 21.11° C | 84% | 1001.7 hPa | - | - | - | - |
| 1788208250 | 21.11° C | 84% | 1001.7 hPa | - | - | - | - |
| 1788207949 | 21.11° C | 83% | 1001.7 hPa | - | - | - | - |
| 1788207649 | 21.11° C | 83% | 1001.7 hPa | - | - | - | - |
| 1788207349 | 21.11° C | 83% | 1001.7 hPa | - | - | - | - |
| 1788207049 | 21.11° C | 83% | 1001.6 hPa | - | - | - | - |
| 1788206750 | 20.56° C | 88% | 1001.7 hPa | - | - | - | - |
| 1788206449 | 20.56° C | 84% | 1001.7 hPa | - | - | - | - |
| 1788206149 | 21.11° C | 84% | 1001.7 hPa | - | - | - | - |
| 1788205849 | 20° C | 89% | 1001.5 hPa | - | - | - | - |
| 1788205550 | 20.56° C | 86% | 1001.5 hPa | - | - | - | - |
| 1788205249 | 20.56° C | 86% | 1001.5 hPa | - | - | - | - |
| 1788204949 | 20.56° C | 85% | 1001.4 hPa | - | - | - | - |
| 1788204649 | 20.56° C | 86% | 1001.4 hPa | - | - | - | - |
| 1788204349 | 20.56° C | 86% | 1001.4 hPa | - | - | - | - |
| 1788204049 | 20° C | 86% | 1001.4 hPa | - | - | - | - |
* Rain since midnight (hover to see other rain measurements)
** Current wind speed in m/s (hover to see current wind gust speed)